Wind_Speed
42 40 35 36 36 33 37 39 41 40 41 43 45 48 49 48 46 44 42 39 35 32 29 26 24 20 18 15 14 13 13 11 7 6 10 15 22 23 25 23 23 24 29
28 30 30 31 33 34 35 35 38 39 41 43 43 45 47 49 49 48 45 42 39 36 32 29 26 22 20 17 17 15 13 11 9 13 16 21 25 25 25 25 26 28 29
28 30 28 30 32 33 31 34 37 38 39 41 43 44 45 48 49 49 47 45 42 39 35 33 29 26 23 21 18 16 14 12 13 15 17 24 27 26 28 27 28 29 33
4 28 28 30 31 33 32 37 37 39 41 40 41 42 44 45 49 49 49 46 42 40 38 34 30 29 26 23 20 17 15 14 13 14 18 22 23 27 24 25 29 30 34
15 11 28 26 30 30 32 35 34 38 39 41 40 39 41 42 46 48 48 46 43 41 38 33 30 28 22 20 20 18 16 14 13 12 15 18 22 21 19 24 25 28 30
20 10 20 28 27 28 30 33 33 35 35 37 37 38 39 41 43 46 49 46 45 43 39 34 30 26 23 20 18 15 13 13 11 11 13 18 22 23 25 25 24 23 10
19 14 9 24 29 30 32 35 34 34 35 35 36 38 40 40 40 40 42 44 45 43 40 37 31 28 24 21 16 12 10 10 10 11 16 19 21 23 26 28 24 23 23
19 14 8 15 28 28 32 33 32 33 34 36 34 37 38 39 39 37 35 38 40 41 40 38 34 29 26 22 19 16 13 13 13 13 15 17 19 22 24 25 27 29 26
17 16 12 7 20 27 27 27 29 29 28 30 36 37 37 36 34 35 33 33 35 37 38 35 32 27 24 21 19 15 12 11 10 10 12 14 17 18 18 20 25 21 21
18 19 14 9 12 23 29 30 30 31 32 34 34 36 36 33 31 35 35 32 31 31 31 29 27 25 21 18 17 14 11 9 8 11 13 14 14 15 16 17 21 18 20
23 19 14 9 10 17 24 28 31 30 32 30 30 31 29 29 32 35 33 31 32 31 30 29 26 23 19 17 12 11 8 5 8 11 13 13 15 18 19 21 23 22 21
23 18 13 10 10 16 22 24 28 29 26 25 25 21 24 25 31 33 25 25 28 32 29 28 26 20 18 14 10 7 5 8 8 8 10 14 18 21 23 25 26 26 26
22 17 11 10 12 17 22 24 23 25 23 21 21 20 23 28 30 30 24 21 24 29 30 29 23 21 15 12 10 8 7 5 5 7 11 15 18 21 25 28 28 28 28
18 17 11 12 15 18 20 22 22 22 20 20 19 19 21 24 27 28 25 25 23 27 27 26 23 20 16 14 10 7 5 4 4 8 11 14 18 22 25 26 26 28 27
15 11 11 12 14 17 19 23 23 22 26 26 25 26 27 25 29 34 32 30 28 31 33 27 23 21 18 14 11 8 4 3 5 8 11 15 19 21 26 27 27 27 27
13 7 8 11 14 15 17 14 12 17 16 16 19 26 23 25 30 29 30 31 29 29 28 25 21 21 17 14 10 6 3 2 6 9 12 15 19 23 24 27 27 24 27
10 9 9 9 13 15 15 15 15 13 15 18 20 23 29 29 37 37 35 29 30 26 25 22 21 19 16 11 7 4 1 3 7 8 13 16 19 24 23 26 26 26 27
10 9 11 12 14 15 16 15 16 17 17 19 21 26 31 37 39 34 31 31 24 21 25 23 20 17 12 8 5 2 2 5 7 12 14 16 21 24 24 23 25 28 28
9 9 10 13 15 16 17 17 17 17 19 20 22 26 34 35 31 31 30 28 26 24 23 20 17 14 10 6 2 1 4 7 9 11 13 18 22 25 23 24 26 29 35
6 6 9 13 14 14 16 16 17 18 19 20 22 22 29 30 29 28 27 26 25 24 22 19 15 11 8 5 1 4 7 9 10 12 16 20 23 25 24 26 25 30 30
4 6 9 11 11 14 14 16 18 20 21 23 23 30 32 33 27 27 26 23 22 20 18 16 13 10 6 3 3 6 10 11 11 13 18 21 25 25 23 25 28 29 31
11 14 16 18 20 21 22 25 25 26 26 28 30 30 30 32 30 28 25 22 18 16 13 12 9 7 4 3 4 8 11 12 12 15 19 24 26 24 20 27 29 28 31
14 16 17 17 21 25 25 25 26 27 27 28 29 30 30 29 28 27 25 21 17 14 11 9 6 4 3 3 5 10 12 11 13 18 22 26 24 18 26 29 29 27 29
17 19 20 19 20 23 24 25 26 28 29 28 28 28 28 28 27 24 21 18 15 12 9 6 4 1 1 4 6 11 11 11 15 19 24 23 18 24 28 31 29 29 30
19 21 20 19 20 21 24 25 26 26 25 25 26 27 27 26 23 20 17 14 12 9 7 4 2 1 4 7 9 12 13 14 15 19 23 17 22 25 28 31 29 28 32
18 21 22 21 22 24 25 26 26 27 26 24 25 26 24 22 19 16 14 11 9 7 5 2 0 3 6 8 11 13 15 14 17 19 22 21 24 27 29 29 29 28 30
Wind_Direction
194 198 199 197 199 197 197 198 203 206 210 213 213 212 214 213 214 213 214 213 212 210 208 208 208 205 201 198 201 203 209 212 227 280 273 292 303 313 318 321 326 327 328
200 200 199 194 194 196 199 198 202 204 210 215 215 215 213 215 214 214 213 213 212 209 208 206 206 202 203 203 206 206 215 219 238 277 290 299 307 316 320 322 329 327 323
195 198 198 195 196 199 197 195 198 201 209 210 211 212 212 213 215 215 216 215 213 213 211 209 206 205 204 204 207 209 212 218 233 254 281 298 307 316 323 323 325 323 323
235 198 202 197 197 198 196 198 197 201 205 208 210 213 215 213 216 216 216 216 215 214 216 215 210 211 211 207 207 212 213 216 224 246 272 293 304 315 316 319 320 323 318
345 232 206 203 204 198 194 194 196 199 205 212 210 211 213 212 215 214 215 216 215 214 215 215 214 216 215 215 214 211 214 218 230 254 275 292 298 305 310 316 309 313 314
336 322 221 206 202 199 192 191 192 195 198 205 204 206 209 213 215 216 217 214 215 214 211 209 211 210 208 210 212 216 227 231 239 261 282 287 293 304 311 312 312 319 323
329 340 251 210 204 199 192 191 193 192 195 200 202 207 210 214 214 212 211 213 214 213 211 207 204 207 204 203 197 203 204 231 254 273 278 285 295 306 313 311 311 308 296
327 335 328 225 206 200 193 188 189 190 192 198 199 211 215 217 213 204 197 209 214 213 210 208 204 201 201 200 199 203 217 231 249 264 274 289 297 306 306 308 309 307 305
325 330 328 279 220 198 188 181 184 183 186 192 205 211 211 214 205 196 187 205 205 209 207 205 203 201 197 198 200 208 219 242 257 267 274 286 297 301 307 313 320 321 317
323 318 313 292 239 208 199 190 188 190 190 199 204 212 214 211 198 188 189 195 190 188 197 197 200 199 187 185 198 206 225 250 263 276 287 298 303 311 323 328 326 309 315
316 311 296 279 243 221 198 190 186 185 192 193 199 207 204 208 192 184 191 192 186 177 177 182 187 187 182 183 201 214 229 245 262 284 297 308 320 328 331 333 333 322 301
314 303 286 258 231 211 199 186 182 180 176 177 183 183 191 193 186 181 185 191 186 175 169 173 178 174 174 175 191 200 195 232 269 284 311 328 329 331 333 332 331 326 318
309 296 269 241 206 202 191 180 167 171 165 163 165 163 166 176 174 177 181 181 173 170 173 178 164 162 162 169 172 172 207 232 261 312 323 320 326 330 334 334 326 320 308
303 298 263 220 200 193 190 183 170 164 161 162 161 162 164 166 167 171 173 171 163 169 159 153 154 157 168 164 167 178 197 223 288 309 315 324 334 338 331 327 315 315 311
301 291 256 213 194 187 187 185 180 187 184 172 174 170 166 173 175 172 165 159 154 148 149 149 153 157 163 175 182 188 199 241 303 325 331 334 340 334 331 333 321 315 308
294 269 232 203 188 176 166 151 177 189 181 185 184 180 181 179 169 163 157 152 153 158 158 150 152 168 176 177 178 183 203 294 328 331 331 339 338 334 327 323 325 312 305
287 264 228 199 179 168 164 156 150 171 180 186 186 182 177 170 163 156 155 161 160 153 147 151 158 173 176 171 169 172 217 315 323 331 334 340 337 338 328 323 318 312 306
297 266 216 201 188 178 171 165 160 164 164 171 183 181 173 162 157 155 157 150 136 146 154 159 165 171 165 167 167 183 302 325 332 336 333 341 343 338 328 317 316 312 317
297 269 218 206 195 186 175 169 167 161 156 160 161 164 162 156 152 153 148 138 135 140 154 158 163 159 153 150 159 325 332 332 330 329 335 343 345 341 322 316 312 320 324
289 238 213 203 196 189 180 174 160 158 157 153 156 154 151 133 117 117 135 142 140 146 154 153 152 154 147 136 52 337 336 334 333 335 335 338 342 337 328 322 316 320 319
248 233 162 169 154 139 136 120 114 106 101 100 103 119 121 118 114 121 132 139 145 149 150 148 148 147 133 98 39 347 337 335 333 332 333 336 337 332 329 328 320 318 317
118 126 128 117 116 111 109 109 111 111 109 107 108 113 120 124 123 128 130 134 140 141 140 137 140 140 117 65 1 342 335 333 335 334 332 334 334 330 326 325 324 321 320
99 103 104 106 112 113 107 108 109 106 102 100 104 109 117 119 125 130 134 135 135 133 133 133 135 130 93 30 354 341 333 331 331 329 327 332 329 328 333 328 323 320 320
100 97 98 99 105 106 106 105 105 107 108 109 112 116 120 128 132 132 132 132 133 132 134 139 141 118 35 8 345 334 334 328 327 325 324 329 328 338 336 332 323 321 318
99 95 94 100 101 101 102 101 101 103 105 110 113 120 129 132 131 132 133 136 138 138 142 148 156 344 347 350 342 332 334 331 312 319 326 332 335 337 335 332 326 321 320
101 102 101 101 102 106 106 105 105 109 111 116 125 131 134 134 134 135 139 143 147 151 159 156 353 346 342 334 333 332 329 318 319 323 324 331 334 334 333 330 324 318 317
Height
699 709 716 721 728 733 736 742 748 754 760 765 772 779 785 791 798 804 807 813 818 821 823 825 831 833 835 837 840 841 844 845 847 845 847 847 843 842 840 836 831 826 822
701 707 710 715 722 726 730 736 743 748 754 759 767 773 779 784 790 796 800 806 811 816 818 823 826 828 831 833 836 838 843 843 845 843 841 841 839 838 835 830 824 822 816
697 702 707 710 716 721 726 731 738 744 750 757 761 767 772 777 782 790 795 800 805 811 814 818 820 824 827 830 833 836 839 840 841 841 839 839 835 833 829 824 818 814 810
693 697 702 705 710 716 720 726 731 737 744 750 755 760 766 771 777 783 789 794 800 806 810 814 816 819 822 825 828 832 834 835 837 838 838 837 834 829 827 820 811 808 802
694 694 697 701 707 710 714 720 726 732 737 742 748 754 760 764 770 776 783 788 794 800 805 810 813 817 820 822 824 826 829 831 833 834 835 835 831 827 825 818 810 803 796
695 693 695 698 703 705 708 715 721 726 731 737 743 749 753 758 764 770 775 781 788 793 799 804 810 814 815 818 821 824 827 828 830 830 831 830 827 825 821 815 808 803 793
698 694 692 694 697 700 703 710 715 721 726 732 737 744 748 753 759 763 770 776 781 787 793 800 805 808 811 815 819 821 822 826 828 827 825 826 823 820 818 812 806 802 796
698 695 692 693 694 695 699 703 710 716 721 726 732 737 743 748 752 760 767 773 777 782 788 794 800 804 808 812 816 818 819 820 822 823 823 822 821 818 816 810 803 798 791
698 694 693 693 693 693 697 701 707 712 718 723 728 732 738 743 749 757 764 769 772 778 783 789 796 803 806 809 812 814 815 817 818 820 821 820 818 816 812 805 799 795 785
699 696 694 692 693 693 695 698 703 708 713 719 723 729 733 739 747 753 758 763 768 773 781 788 793 799 804 806 808 810 812 813 815 817 817 815 814 811 807 803 797 793 788
699 695 692 691 691 693 694 696 700 706 712 718 722 727 732 738 743 749 755 758 763 768 775 784 790 796 801 804 806 809 810 811 813 814 813 812 810 806 802 798 795 791 786
698 694 691 690 689 691 694 697 700 704 711 716 721 727 732 736 740 748 754 759 763 765 772 779 787 794 799 802 805 807 808 809 811 811 810 808 806 801 797 793 788 785 781
699 693 690 690 689 691 693 697 700 704 709 714 720 725 730 735 740 747 753 758 762 766 770 777 786 792 797 801 804 805 805 807 809 809 807 806 803 798 793 787 783 779 775
695 691 689 689 690 690 692 694 698 701 707 712 717 723 729 734 738 743 750 757 762 765 771 779 784 789 795 799 801 802 804 806 807 807 805 803 798 794 788 784 779 771 766
692 688 688 688 689 690 690 692 695 700 702 706 711 717 722 731 734 737 743 749 758 762 769 777 782 787 793 796 798 800 803 804 805 804 803 799 794 790 784 779 773 766 761
689 686 687 687 687 690 690 692 696 700 705 710 713 716 722 728 733 738 744 749 758 763 769 774 781 787 791 793 795 798 801 802 802 800 800 795 791 787 781 776 768 764 757
687 686 686 686 688 689 691 692 695 701 704 708 713 717 721 726 730 736 743 751 758 762 767 775 781 786 790 792 794 796 798 798 798 797 796 790 787 783 777 772 766 761 753
685 685 685 687 689 690 690 693 695 697 701 707 713 717 720 725 730 736 744 752 759 764 769 775 782 786 789 792 793 795 795 795 794 794 792 788 784 780 773 767 763 758 747
684 684 685 686 689 690 690 693 695 698 702 707 713 718 722 726 732 740 745 750 757 764 770 776 784 786 788 791 794 794 793 792 792 791 789 784 780 776 770 764 758 753 744
684 684 685 686 689 690 691 692 694 699 702 705 710 717 724 728 732 742 750 756 762 767 771 777 782 787 786 788 792 794 792 791 790 788 786 782 777 773 767 761 755 748 739
686 685 686 688 688 689 690 691 695 699 704 706 713 718 725 730 739 746 753 761 766 773 775 779 783 786 786 787 788 792 793 790 788 786 783 779 774 769 765 759 752 745 735
688 688 689 690 690 692 693 696 700 705 710 713 718 727 731 738 745 751 758 765 772 776 780 781 785 787 785 785 788 789 789 789 786 783 780 775 771 766 761 757 749 741 733
692 692 693 694 694 696 698 702 706 710 715 720 725 731 739 746 752 757 762 767 773 777 782 784 786 786 784 784 785 786 786 786 783 781 776 770 766 763 758 753 745 737 730
698 698 698 700 700 702 705 709 714 718 722 728 734 740 746 752 757 762 766 770 775 778 782 784 785 786 785 783 783 786 783 783 781 777 772 767 764 759 753 748 742 734 727
703 703 705 707 708 710 713 716 721 726 731 737 741 747 752 757 762 766 770 774 777 779 782 783 784 784 783 782 781 784 781 779 778 773 768 765 762 755 749 742 736 730 723
710 710 711 714 715 718 720 724 728 733 738 745 750 753 758 762 766 769 773 776 778 780 782 782 781 781 781 782 780 780 778 776 772 769 765 762 757 751 744 737 732 727 719